Year,Month,Day,Hour,Minute,Value (Times are PST for windgust in km/hr)
2018,02,28,00,00,1.60
2018,02,28,00,02,8.10
2018,02,28,00,03,8.10
2018,02,28,00,04,9.60
2018,02,28,00,05,4.80
2018,02,28,00,06,8.10
2018,02,28,00,07,6.40
2018,02,28,00,08,6.40
2018,02,28,00,09,4.80
2018,02,28,00,10,1.60
2018,02,28,00,11,4.80
2018,02,28,00,13,6.40
2018,02,28,00,14,3.20
2018,02,28,00,15,3.20
2018,02,28,00,16,3.20
2018,02,28,00,19,8.10
2018,02,28,00,20,3.20
2018,02,28,00,21,4.80
2018,02,28,00,22,6.40
2018,02,28,00,24,3.20
2018,02,28,00,25,6.40
2018,02,28,00,26,3.20
2018,02,28,00,27,6.40
2018,02,28,00,28,1.60
2018,02,28,00,29,3.20
2018,02,28,00,30,6.40
2018,02,28,00,31,6.40
2018,02,28,00,33,6.40
2018,02,28,00,34,3.20
2018,02,28,00,35,3.20
2018,02,28,00,39,1.60
2018,02,28,00,40,6.40
2018,02,28,00,41,8.10
2018,02,28,00,42,4.80
2018,02,28,00,43,6.40
2018,02,28,00,44,9.60
2018,02,28,00,45,4.80
2018,02,28,00,46,1.60
2018,02,28,00,47,4.80
2018,02,28,00,48,6.40
2018,02,28,00,49,8.10
2018,02,28,00,50,4.80
2018,02,28,00,51,3.20
2018,02,28,00,52,1.60
2018,02,28,00,53,3.20
2018,02,28,00,54,1.60
2018,02,28,00,56,3.20
2018,02,28,00,57,1.60
2018,02,28,00,58,4.80
2018,02,28,00,59,6.40
2018,02,28,01,00,4.80
2018,02,28,01,15,1.60
2018,02,28,01,16,1.60
2018,02,28,01,18,4.80
2018,02,28,01,19,4.80
2018,02,28,01,21,3.20
2018,02,28,01,23,1.60
2018,02,28,01,24,4.80
2018,02,28,01,25,6.40
2018,02,28,01,26,4.80
2018,02,28,01,27,4.80
2018,02,28,01,28,4.80
2018,02,28,01,29,3.20
2018,02,28,01,30,6.40
2018,02,28,01,35,4.80
2018,02,28,01,36,1.60
2018,02,28,01,37,6.40
2018,02,28,01,38,1.60
2018,02,28,01,41,4.80
2018,02,28,01,42,4.80
2018,02,28,01,44,3.20
2018,02,28,01,47,1.60
2018,02,28,01,48,4.80
2018,02,28,01,49,1.60
2018,02,28,01,50,4.80
2018,02,28,01,51,3.20
2018,02,28,01,52,4.80
2018,02,28,02,00,3.20
2018,02,28,02,01,6.40
2018,02,28,02,02,3.20
2018,02,28,02,04,1.60
2018,02,28,02,05,4.80
2018,02,28,02,06,3.20
2018,02,28,02,07,3.20
2018,02,28,02,08,3.20
2018,02,28,02,11,8.10
2018,02,28,02,12,3.20
2018,02,28,02,13,3.20
2018,02,28,02,17,4.80
2018,02,28,02,18,3.20
2018,02,28,02,19,3.20
2018,02,28,02,21,1.60
2018,02,28,02,22,3.20
2018,02,28,02,23,3.20
2018,02,28,02,25,6.40
2018,02,28,02,26,4.80
2018,02,28,02,27,3.20
2018,02,28,02,28,1.60
2018,02,28,02,29,3.20
2018,02,28,02,32,1.60
2018,02,28,02,35,1.60
2018,02,28,02,36,1.60
2018,02,28,02,37,1.60
2018,02,28,02,39,1.60
2018,02,28,02,40,3.20
2018,02,28,02,45,4.80
2018,02,28,02,52,1.60
2018,02,28,02,55,1.60
2018,02,28,02,56,4.80
2018,02,28,02,57,6.40
2018,02,28,02,58,1.60
2018,02,28,03,01,1.60
2018,02,28,03,02,1.60
2018,02,28,03,04,4.80
2018,02,28,03,05,1.60
2018,02,28,03,06,3.20
2018,02,28,03,24,1.60
2018,02,28,03,36,8.10
2018,02,28,03,37,4.80
2018,02,28,03,38,6.40
2018,02,28,03,39,8.10
2018,02,28,03,40,4.80
2018,02,28,03,42,6.40
2018,02,28,03,43,6.40
2018,02,28,03,44,4.80
2018,02,28,03,45,8.10
2018,02,28,03,46,8.10
2018,02,28,03,47,3.20
2018,02,28,03,48,4.80
2018,02,28,03,49,1.60
2018,02,28,04,03,3.20
2018,02,28,04,04,1.60
2018,02,28,04,10,3.20
2018,02,28,04,13,3.20
2018,02,28,04,14,3.20
2018,02,28,04,15,3.20
2018,02,28,04,16,3.20
2018,02,28,04,17,3.20
2018,02,28,04,18,4.80
2018,02,28,04,20,1.60
2018,02,28,04,21,1.60
2018,02,28,04,22,4.80
2018,02,28,04,23,3.20
2018,02,28,04,24,1.60
2018,02,28,04,25,1.60
2018,02,28,04,26,3.20
2018,02,28,04,27,11.30
2018,02,28,04,28,8.10
2018,02,28,04,29,6.40
2018,02,28,04,30,6.40
2018,02,28,04,31,4.80
2018,02,28,04,32,3.20
2018,02,28,04,33,6.40
2018,02,28,04,34,11.30
2018,02,28,04,35,4.80
2018,02,28,04,36,4.80
2018,02,28,04,37,8.10
2018,02,28,04,38,6.40
2018,02,28,04,39,4.80
2018,02,28,04,40,9.60
2018,02,28,04,41,11.30
2018,02,28,04,42,9.60
2018,02,28,04,43,9.60
2018,02,28,04,44,8.10
2018,02,28,04,45,16.10
2018,02,28,04,46,9.60
2018,02,28,04,47,6.40
2018,02,28,04,48,4.80
2018,02,28,04,49,11.30
2018,02,28,04,50,8.10
2018,02,28,04,51,8.10
2018,02,28,04,52,8.10
2018,02,28,04,53,11.30
2018,02,28,04,54,6.40
2018,02,28,04,55,14.50
2018,02,28,04,56,11.30
2018,02,28,04,57,17.70
2018,02,28,04,58,12.90
2018,02,28,04,59,8.10
2018,02,28,05,00,11.30
2018,02,28,05,01,6.40
2018,02,28,05,02,8.10
2018,02,28,05,03,9.60
2018,02,28,05,04,6.40
2018,02,28,05,05,4.80
2018,02,28,05,06,8.10
2018,02,28,05,07,6.40
2018,02,28,05,08,6.40
2018,02,28,05,09,6.40
2018,02,28,05,10,8.10
2018,02,28,05,11,4.80
2018,02,28,05,12,8.10
2018,02,28,05,13,20.90
2018,02,28,05,14,19.30
2018,02,28,05,15,9.60
2018,02,28,05,16,16.10
2018,02,28,05,17,6.40
2018,02,28,05,18,24.20
2018,02,28,05,19,11.30
2018,02,28,05,20,11.30
2018,02,28,05,21,8.10
2018,02,28,05,22,9.60
2018,02,28,05,23,16.10
2018,02,28,05,24,4.80
2018,02,28,05,25,6.40
2018,02,28,05,26,6.40
2018,02,28,05,27,3.20
2018,02,28,05,28,6.40
2018,02,28,05,29,6.40
2018,02,28,05,30,9.60
2018,02,28,05,31,8.10
2018,02,28,05,32,9.60
2018,02,28,05,33,11.30
2018,02,28,05,34,9.60
2018,02,28,05,35,6.40
2018,02,28,05,36,6.40
2018,02,28,05,37,6.40
2018,02,28,05,38,11.30
2018,02,28,05,39,4.80
2018,02,28,05,40,8.10
2018,02,28,05,41,6.40
2018,02,28,05,42,9.60
2018,02,28,05,43,9.60
2018,02,28,05,44,9.60
2018,02,28,05,45,8.10
2018,02,28,05,46,8.10
2018,02,28,05,47,8.10
2018,02,28,05,48,6.40
2018,02,28,05,49,16.10
2018,02,28,05,50,9.60
2018,02,28,05,51,9.60
2018,02,28,05,52,8.10
2018,02,28,05,53,8.10
2018,02,28,05,54,9.60
2018,02,28,05,55,8.10
2018,02,28,05,56,11.30
2018,02,28,05,57,6.40
2018,02,28,05,58,8.10
2018,02,28,05,59,6.40
2018,02,28,06,00,8.10
2018,02,28,06,01,11.30
2018,02,28,06,02,8.10
2018,02,28,06,03,6.40
2018,02,28,06,04,4.80
2018,02,28,06,05,9.60
2018,02,28,06,06,16.10
2018,02,28,06,07,9.60
2018,02,28,06,08,11.30
2018,02,28,06,09,9.60
2018,02,28,06,10,8.10
2018,02,28,06,11,8.10
2018,02,28,06,12,6.40
2018,02,28,06,13,8.10
2018,02,28,06,14,16.10
2018,02,28,06,15,9.60
2018,02,28,06,16,8.10
2018,02,28,06,17,11.30
2018,02,28,06,18,8.10
2018,02,28,06,19,4.80
2018,02,28,06,20,6.40
2018,02,28,06,21,8.10
2018,02,28,06,22,14.50
2018,02,28,06,23,9.60
2018,02,28,06,24,6.40
2018,02,28,06,25,8.10
2018,02,28,06,26,9.60
2018,02,28,06,27,8.10
2018,02,28,06,28,6.40
2018,02,28,06,29,4.80
2018,02,28,06,30,9.60
2018,02,28,06,31,6.40
2018,02,28,06,32,4.80
2018,02,28,06,33,6.40
2018,02,28,06,34,6.40
2018,02,28,06,35,9.60
2018,02,28,06,36,3.20
2018,02,28,06,37,4.80
2018,02,28,06,38,11.30
2018,02,28,06,39,8.10
2018,02,28,06,40,8.10
2018,02,28,06,41,8.10
2018,02,28,06,42,9.60
2018,02,28,06,43,14.50
2018,02,28,06,44,9.60
2018,02,28,06,45,4.80
2018,02,28,06,46,8.10
2018,02,28,06,47,4.80
2018,02,28,06,48,9.60
2018,02,28,06,49,6.40
2018,02,28,06,50,8.10
2018,02,28,06,51,17.70
2018,02,28,06,52,9.60
2018,02,28,06,53,6.40
2018,02,28,06,54,4.80
2018,02,28,06,55,6.40
2018,02,28,06,56,6.40
2018,02,28,06,57,6.40
2018,02,28,06,58,4.80
2018,02,28,06,59,6.40
2018,02,28,07,00,9.60
2018,02,28,07,01,8.10
2018,02,28,07,02,8.10
2018,02,28,07,03,6.40
2018,02,28,07,04,11.30
2018,02,28,07,05,8.10
2018,02,28,07,06,8.10
2018,02,28,07,07,11.30
2018,02,28,07,08,14.50
2018,02,28,07,09,16.10
2018,02,28,07,10,9.60
2018,02,28,07,11,11.30
2018,02,28,07,12,11.30
2018,02,28,07,13,11.30
2018,02,28,07,14,8.10
2018,02,28,07,15,9.60
2018,02,28,07,16,4.80
2018,02,28,07,17,8.10
2018,02,28,07,18,11.30
2018,02,28,07,19,14.50
2018,02,28,07,20,11.30
2018,02,28,07,21,17.70
2018,02,28,07,22,11.30
2018,02,28,07,23,17.70
2018,02,28,07,24,11.30
2018,02,28,07,25,11.30
2018,02,28,07,26,9.60
2018,02,28,07,27,6.40
2018,02,28,07,28,8.10
2018,02,28,07,29,22.50
2018,02,28,07,30,25.70
2018,02,28,07,31,17.70
2018,02,28,07,32,9.60
2018,02,28,07,33,12.90
2018,02,28,07,34,11.30
2018,02,28,07,35,16.10
2018,02,28,07,36,19.30
2018,02,28,07,37,14.50
2018,02,28,07,38,11.30
2018,02,28,07,39,19.30
2018,02,28,07,40,16.10
2018,02,28,07,41,17.70
2018,02,28,07,42,11.30
2018,02,28,07,43,9.60
2018,02,28,07,44,8.10
2018,02,28,07,45,11.30
2018,02,28,07,46,16.10
2018,02,28,07,47,11.30
2018,02,28,07,48,20.90
2018,02,28,07,49,11.30
2018,02,28,07,50,11.30
2018,02,28,07,51,16.10
2018,02,28,07,52,16.10
2018,02,28,07,53,16.10
2018,02,28,07,54,16.10
2018,02,28,07,55,16.10
2018,02,28,07,56,16.10
2018,02,28,07,57,17.70
2018,02,28,07,58,19.30
2018,02,28,07,59,14.50
2018,02,28,08,00,8.10
2018,02,28,08,01,17.70
2018,02,28,08,02,16.10
2018,02,28,08,03,11.30
2018,02,28,08,04,16.10
2018,02,28,08,05,16.10
2018,02,28,08,06,11.30
2018,02,28,08,07,12.90
2018,02,28,08,08,14.50
2018,02,28,08,09,20.90
2018,02,28,08,10,19.30
2018,02,28,08,11,22.50
2018,02,28,08,12,19.30
2018,02,28,08,13,14.50
2018,02,28,08,14,19.30
2018,02,28,08,15,16.10
2018,02,28,08,16,11.30
2018,02,28,08,17,16.10
2018,02,28,08,18,11.30
2018,02,28,08,19,17.70
2018,02,28,08,20,16.10
2018,02,28,08,21,22.50
2018,02,28,08,22,20.90
2018,02,28,08,23,19.30
2018,02,28,08,24,22.50
2018,02,28,08,25,17.70
2018,02,28,08,26,20.90
2018,02,28,08,27,19.30
2018,02,28,08,28,11.30
2018,02,28,08,29,20.90
2018,02,28,08,30,16.10
2018,02,28,08,31,16.10
2018,02,28,08,32,16.10
2018,02,28,08,33,29.00
2018,02,28,08,34,16.10
2018,02,28,08,35,17.70
2018,02,28,08,36,17.70
2018,02,28,08,37,24.20
2018,02,28,08,38,22.50
2018,02,28,08,39,24.20
2018,02,28,08,40,16.10
2018,02,28,08,41,17.70
2018,02,28,08,42,17.70
2018,02,28,08,43,11.30
2018,02,28,08,44,20.90
2018,02,28,08,45,17.70
2018,02,28,08,46,27.40
2018,02,28,08,47,19.30
2018,02,28,08,48,17.70
2018,02,28,08,49,14.50
2018,02,28,08,50,16.10
2018,02,28,08,51,20.90
2018,02,28,08,52,16.10
2018,02,28,08,53,17.70
2018,02,28,08,54,20.90
2018,02,28,08,55,20.90
2018,02,28,08,56,19.30
2018,02,28,08,57,22.50
2018,02,28,08,58,20.90
2018,02,28,08,59,22.50
2018,02,28,09,00,20.90
2018,02,28,09,01,25.70
2018,02,28,09,02,19.30
2018,02,28,09,03,17.70
2018,02,28,09,04,22.50
2018,02,28,09,05,22.50
2018,02,28,09,06,22.50
2018,02,28,09,07,24.20
2018,02,28,09,08,27.40
2018,02,28,09,09,32.20
2018,02,28,09,10,30.60
2018,02,28,09,11,20.90
2018,02,28,09,12,22.50
2018,02,28,09,13,25.70
2018,02,28,09,14,22.50
2018,02,28,09,15,22.50
2018,02,28,09,16,20.90
2018,02,28,09,17,19.30
2018,02,28,09,18,20.90
2018,02,28,09,19,19.30
2018,02,28,09,20,25.70
2018,02,28,09,21,24.20
2018,02,28,09,22,27.40
2018,02,28,09,23,24.20
2018,02,28,09,24,20.90
2018,02,28,09,25,30.60
2018,02,28,09,26,24.20
2018,02,28,09,27,30.60
2018,02,28,09,28,30.60
2018,02,28,09,29,24.20
2018,02,28,09,30,27.40
2018,02,28,09,31,30.60
2018,02,28,09,32,24.20
2018,02,28,09,33,33.80
2018,02,28,09,34,25.70
2018,02,28,09,35,24.20
2018,02,28,09,36,24.20
2018,02,28,09,37,25.70
2018,02,28,09,38,25.70
2018,02,28,09,39,27.40
2018,02,28,09,40,32.20
2018,02,28,09,41,27.40
2018,02,28,09,42,30.60
2018,02,28,09,43,29.00
2018,02,28,09,44,25.70
2018,02,28,09,45,24.20
2018,02,28,09,46,33.80
2018,02,28,09,47,32.20
2018,02,28,09,48,22.50
2018,02,28,09,49,17.70
2018,02,28,09,50,20.90
2018,02,28,09,51,27.40
2018,02,28,09,52,19.30
2018,02,28,09,53,19.30
2018,02,28,09,54,33.80
2018,02,28,09,55,33.80
2018,02,28,09,56,24.20
2018,02,28,09,57,24.20
2018,02,28,09,58,24.20
2018,02,28,09,59,17.70
2018,02,28,10,00,24.20
2018,02,28,10,01,17.70
2018,02,28,10,02,20.90
2018,02,28,10,03,33.80
2018,02,28,10,04,27.40
2018,02,28,10,05,27.40
2018,02,28,10,06,25.70
2018,02,28,10,07,19.30
2018,02,28,10,08,35.40
2018,02,28,10,09,35.40
2018,02,28,10,10,22.50
2018,02,28,10,11,19.30
2018,02,28,10,12,30.60
2018,02,28,10,13,16.10
2018,02,28,10,14,24.20
2018,02,28,10,15,29.00
2018,02,28,10,16,30.60
2018,02,28,10,17,27.40
2018,02,28,10,18,22.50
2018,02,28,10,19,14.50
2018,02,28,10,20,27.40
2018,02,28,10,21,33.80
2018,02,28,10,22,30.60
2018,02,28,10,23,27.40
2018,02,28,10,24,30.60
2018,02,28,10,25,22.50
2018,02,28,10,26,29.00
2018,02,28,10,27,32.20
2018,02,28,10,28,30.60
2018,02,28,10,29,20.90
2018,02,28,10,30,30.60
2018,02,28,10,31,25.70
2018,02,28,10,32,27.40
2018,02,28,10,33,29.00
2018,02,28,10,34,32.20
2018,02,28,10,35,29.00
2018,02,28,10,36,24.20
2018,02,28,10,37,29.00
2018,02,28,10,38,22.50
2018,02,28,10,39,17.70
2018,02,28,10,40,20.90
2018,02,28,10,41,20.90
2018,02,28,10,42,19.30
2018,02,28,10,43,20.90
2018,02,28,10,44,29.00
2018,02,28,10,45,37.00
2018,02,28,10,46,30.60
2018,02,28,10,47,20.90
2018,02,28,10,48,24.20
2018,02,28,10,49,19.30
2018,02,28,10,50,22.50
2018,02,28,10,51,20.90
2018,02,28,10,52,32.20
2018,02,28,10,53,41.80
2018,02,28,10,54,27.40
2018,02,28,10,55,24.20
2018,02,28,10,56,24.20
2018,02,28,10,57,22.50
2018,02,28,10,58,30.60
2018,02,28,10,59,22.50
2018,02,28,11,00,29.00
2018,02,28,11,01,12.90
2018,02,28,11,02,19.30
2018,02,28,11,03,24.20
2018,02,28,11,04,30.60
2018,02,28,11,05,37.00
2018,02,28,11,06,25.70
2018,02,28,11,07,20.90
2018,02,28,11,08,17.70
2018,02,28,11,09,22.50
2018,02,28,11,10,35.40
2018,02,28,11,11,37.00
2018,02,28,11,12,30.60
2018,02,28,11,13,24.20
2018,02,28,11,14,29.00
2018,02,28,11,15,37.00
2018,02,28,11,16,37.00
2018,02,28,11,17,24.20
2018,02,28,11,18,29.00
2018,02,28,11,19,27.40
2018,02,28,11,20,33.80
2018,02,28,11,21,24.20
2018,02,28,11,22,30.60
2018,02,28,11,23,37.00
2018,02,28,11,24,30.60
2018,02,28,11,25,33.80
2018,02,28,11,26,25.70
2018,02,28,11,27,25.70
2018,02,28,11,28,41.80
2018,02,28,11,29,43.50
2018,02,28,11,30,41.80
2018,02,28,11,31,33.80
2018,02,28,11,32,24.20
2018,02,28,11,33,24.20
2018,02,28,11,34,32.20
2018,02,28,11,35,29.00
2018,02,28,11,36,45.10
2018,02,28,11,37,32.20
2018,02,28,11,38,32.20
2018,02,28,11,39,32.20
2018,02,28,11,40,29.00
2018,02,28,11,41,29.00
2018,02,28,11,42,25.70
2018,02,28,11,43,33.80
2018,02,28,11,44,30.60
2018,02,28,11,45,32.20
2018,02,28,11,46,29.00
2018,02,28,11,47,41.80
2018,02,28,11,48,40.20
2018,02,28,11,49,40.20
2018,02,28,11,50,27.40
2018,02,28,11,51,24.20
2018,02,28,11,52,30.60
2018,02,28,11,53,24.20
2018,02,28,11,54,38.60
2018,02,28,11,55,29.00
2018,02,28,11,56,45.10
2018,02,28,11,57,40.20
2018,02,28,11,58,25.70
2018,02,28,11,59,27.40
2018,02,28,12,00,48.30
2018,02,28,12,01,43.50
2018,02,28,12,02,37.00
2018,02,28,12,03,35.40
2018,02,28,12,04,37.00
2018,02,28,12,05,27.40
2018,02,28,12,06,32.20
2018,02,28,12,07,29.00
2018,02,28,12,08,35.40
2018,02,28,12,09,41.80
2018,02,28,12,10,45.10
2018,02,28,12,11,40.20
2018,02,28,12,12,33.80
2018,02,28,12,13,25.70
2018,02,28,12,14,33.80
2018,02,28,12,15,30.60
2018,02,28,12,16,33.80
2018,02,28,12,17,24.20
2018,02,28,12,18,41.80
2018,02,28,12,19,33.80
2018,02,28,12,20,20.90
2018,02,28,12,21,27.40
2018,02,28,12,22,30.60
2018,02,28,12,23,22.50
2018,02,28,12,24,22.50
2018,02,28,12,25,32.20
2018,02,28,12,26,27.40
2018,02,28,12,27,30.60
2018,02,28,12,28,37.00
2018,02,28,12,29,20.90
2018,02,28,12,30,29.00
2018,02,28,12,31,22.50
2018,02,28,12,32,33.80
2018,02,28,12,33,25.70
2018,02,28,12,34,30.60
2018,02,28,12,35,29.00
2018,02,28,12,36,41.80
2018,02,28,12,37,38.60
2018,02,28,12,38,41.80
2018,02,28,12,39,41.80
2018,02,28,12,40,48.30
2018,02,28,12,41,46.70
2018,02,28,12,42,41.80
2018,02,28,12,43,41.80
2018,02,28,12,44,48.30
2018,02,28,12,45,25.70
2018,02,28,12,46,40.20
2018,02,28,12,47,40.20
2018,02,28,12,48,30.60
2018,02,28,12,49,35.40
2018,02,28,12,50,35.40
2018,02,28,12,51,29.00
2018,02,28,12,52,32.20
2018,02,28,12,53,29.00
2018,02,28,12,54,37.00
2018,02,28,12,55,40.20
2018,02,28,12,56,37.00
2018,02,28,12,57,33.80
2018,02,28,12,58,32.20
2018,02,28,12,59,46.70
2018,02,28,13,00,51.50
2018,02,28,13,01,27.40
2018,02,28,13,02,35.40
2018,02,28,13,03,38.60
2018,02,28,13,04,37.00
2018,02,28,13,05,33.80
2018,02,28,13,06,41.80
2018,02,28,13,07,38.60
2018,02,28,13,08,46.70
2018,02,28,13,09,35.40
2018,02,28,13,10,33.80
2018,02,28,13,11,30.60
2018,02,28,13,12,38.60
2018,02,28,13,13,29.00
2018,02,28,13,14,40.20
2018,02,28,13,15,37.00
2018,02,28,13,16,32.20
2018,02,28,13,17,27.40
2018,02,28,13,18,41.80
2018,02,28,13,19,27.40
2018,02,28,13,20,32.20
2018,02,28,13,21,20.90
2018,02,28,13,22,27.40
2018,02,28,13,23,29.00
2018,02,28,13,24,32.20
2018,02,28,13,25,29.00
2018,02,28,13,26,41.80
2018,02,28,13,27,33.80
2018,02,28,13,28,30.60
2018,02,28,13,29,37.00
2018,02,28,13,30,30.60
2018,02,28,13,31,45.10
2018,02,28,13,32,29.00
2018,02,28,13,33,32.20
2018,02,28,13,34,38.60
2018,02,28,13,35,33.80
2018,02,28,13,36,35.40
2018,02,28,13,37,35.40
2018,02,28,13,38,33.80
2018,02,28,13,39,41.80
2018,02,28,13,40,45.10
2018,02,28,13,41,40.20
2018,02,28,13,42,24.20
2018,02,28,13,43,30.60
2018,02,28,13,44,32.20
2018,02,28,13,45,46.70
2018,02,28,13,46,33.80
2018,02,28,13,47,27.40
2018,02,28,13,48,32.20
2018,02,28,13,49,45.10
2018,02,28,13,50,43.50
2018,02,28,13,51,41.80
2018,02,28,13,52,38.60
2018,02,28,13,53,33.80
2018,02,28,13,54,29.00
2018,02,28,13,55,25.70
2018,02,28,13,56,33.80
2018,02,28,13,57,38.60
2018,02,28,13,58,24.20
2018,02,28,13,59,27.40
2018,02,28,14,00,25.70
2018,02,28,14,01,37.00
2018,02,28,14,02,24.20
2018,02,28,14,03,40.20
2018,02,28,14,04,37.00
2018,02,28,14,05,33.80
2018,02,28,14,06,46.70
2018,02,28,14,07,40.20
2018,02,28,14,08,33.80
2018,02,28,14,09,32.20
2018,02,28,14,10,37.00
2018,02,28,14,11,40.20
2018,02,28,14,12,30.60
2018,02,28,14,13,46.70
2018,02,28,14,14,25.70
2018,02,28,14,15,43.50
2018,02,28,14,16,40.20
2018,02,28,14,17,37.00
2018,02,28,14,18,29.00
2018,02,28,14,19,37.00
2018,02,28,14,20,40.20
2018,02,28,14,21,37.00
2018,02,28,14,22,35.40
2018,02,28,14,23,33.80
2018,02,28,14,24,25.70
2018,02,28,14,25,30.60
2018,02,28,14,26,32.20
2018,02,28,14,27,32.20
2018,02,28,14,28,27.40
2018,02,28,14,29,43.50
2018,02,28,14,30,37.00
2018,02,28,14,31,37.00
2018,02,28,14,32,33.80
2018,02,28,14,33,40.20
2018,02,28,14,34,33.80
2018,02,28,14,35,32.20
2018,02,28,14,36,49.90
2018,02,28,14,37,45.10
2018,02,28,14,38,37.00
2018,02,28,14,39,37.00
2018,02,28,14,40,25.70
2018,02,28,14,41,30.60
2018,02,28,14,42,43.50
2018,02,28,14,43,38.60
2018,02,28,14,44,41.80
2018,02,28,14,45,30.60
2018,02,28,14,46,22.50
2018,02,28,14,47,35.40
2018,02,28,14,48,32.20
2018,02,28,14,49,33.80
2018,02,28,14,50,38.60
2018,02,28,14,51,45.10
2018,02,28,14,52,51.50
2018,02,28,14,53,40.20
2018,02,28,14,54,35.40
2018,02,28,14,55,30.60
2018,02,28,14,56,33.80
2018,02,28,14,57,43.50
2018,02,28,14,58,40.20
2018,02,28,14,59,25.70
2018,02,28,15,00,33.80
2018,02,28,15,01,35.40
2018,02,28,15,02,37.00
2018,02,28,15,03,24.20
2018,02,28,15,04,43.50
2018,02,28,15,05,35.40
2018,02,28,15,06,38.60
2018,02,28,15,07,37.00
2018,02,28,15,08,38.60
2018,02,28,15,09,38.60
2018,02,28,15,10,35.40
2018,02,28,15,11,29.00
2018,02,28,15,12,32.20
2018,02,28,15,13,45.10
2018,02,28,15,14,41.80
2018,02,28,15,15,40.20
2018,02,28,15,16,35.40
2018,02,28,15,17,38.60
2018,02,28,15,18,33.80
2018,02,28,15,19,38.60
2018,02,28,15,20,43.50
2018,02,28,15,21,33.80
2018,02,28,15,22,30.60
2018,02,28,15,23,48.30
2018,02,28,15,24,33.80
2018,02,28,15,25,32.20
2018,02,28,15,26,35.40
2018,02,28,15,27,38.60
2018,02,28,15,28,41.80
2018,02,28,15,29,40.20
2018,02,28,15,30,43.50
2018,02,28,15,31,35.40
2018,02,28,15,32,48.30
2018,02,28,15,33,33.80
2018,02,28,15,34,29.00
2018,02,28,15,35,33.80
2018,02,28,15,36,38.60
2018,02,28,15,37,25.70
2018,02,28,15,38,41.80
2018,02,28,15,39,48.30
2018,02,28,15,40,38.60
2018,02,28,15,41,45.10
2018,02,28,15,42,41.80
2018,02,28,15,43,22.50
2018,02,28,15,44,41.80
2018,02,28,15,45,45.10
2018,02,28,15,46,43.50
2018,02,28,15,47,49.90
2018,02,28,15,48,35.40
2018,02,28,15,49,49.90
2018,02,28,15,50,49.90
2018,02,28,15,51,35.40
2018,02,28,15,52,32.20
2018,02,28,15,53,29.00
2018,02,28,15,54,30.60
2018,02,28,15,55,32.20
2018,02,28,15,56,38.60
2018,02,28,15,57,51.50
2018,02,28,15,58,46.70
2018,02,28,15,59,38.60
2018,02,28,16,00,27.40
2018,02,28,16,01,30.60
2018,02,28,16,02,40.20
2018,02,28,16,03,38.60
2018,02,28,16,04,49.90
2018,02,28,16,05,45.10
2018,02,28,16,06,49.90
2018,02,28,16,07,40.20
2018,02,28,16,08,35.40
2018,02,28,16,09,30.60
2018,02,28,16,10,43.50
2018,02,28,16,11,32.20
2018,02,28,16,12,37.00
2018,02,28,16,13,35.40
2018,02,28,16,14,45.10
2018,02,28,16,15,24.20
2018,02,28,16,16,45.10
2018,02,28,16,17,45.10
2018,02,28,16,18,43.50
2018,02,28,16,19,37.00
2018,02,28,16,20,30.60
2018,02,28,16,21,30.60
2018,02,28,16,22,20.90
2018,02,28,16,23,41.80
2018,02,28,16,24,45.10
2018,02,28,16,25,45.10
2018,02,28,16,26,48.30
2018,02,28,16,27,53.10
2018,02,28,16,28,46.70
2018,02,28,16,29,45.10
2018,02,28,16,30,27.40
2018,02,28,16,31,33.80
2018,02,28,16,32,37.00
2018,02,28,16,33,40.20
2018,02,28,16,34,32.20
2018,02,28,16,35,37.00
2018,02,28,16,36,48.30
2018,02,28,16,37,38.60
2018,02,28,16,38,30.60
2018,02,28,16,39,48.30
2018,02,28,16,40,45.10
2018,02,28,16,41,56.30
2018,02,28,16,42,25.70
2018,02,28,16,43,35.40
2018,02,28,16,44,35.40
2018,02,28,16,45,32.20
2018,02,28,16,46,51.50
2018,02,28,16,47,40.20
2018,02,28,16,48,45.10
2018,02,28,16,49,33.80
2018,02,28,16,50,32.20
2018,02,28,16,51,32.20
2018,02,28,16,52,45.10
2018,02,28,16,53,41.80
2018,02,28,16,54,33.80
2018,02,28,16,55,40.20
2018,02,28,16,56,41.80
2018,02,28,16,57,30.60
2018,02,28,16,58,48.30
2018,02,28,16,59,48.30
2018,02,28,17,00,33.80
2018,02,28,17,01,35.40
2018,02,28,17,02,29.00
2018,02,28,17,03,32.20
2018,02,28,17,04,22.50
2018,02,28,17,05,32.20
2018,02,28,17,06,41.80
2018,02,28,17,07,33.80
2018,02,28,17,08,29.00
2018,02,28,17,09,33.80
2018,02,28,17,10,25.70
2018,02,28,17,11,33.80
2018,02,28,17,12,40.20
2018,02,28,17,13,33.80
2018,02,28,17,14,51.50
2018,02,28,17,15,38.60
2018,02,28,17,16,32.20
2018,02,28,17,17,27.40
2018,02,28,17,18,37.00
2018,02,28,17,19,43.50
2018,02,28,17,20,37.00
2018,02,28,17,21,25.70
2018,02,28,17,22,48.30
2018,02,28,17,23,48.30
2018,02,28,17,24,33.80
2018,02,28,17,25,33.80
2018,02,28,17,26,38.60
2018,02,28,17,27,29.00
2018,02,28,17,28,53.10
2018,02,28,17,29,49.90
2018,02,28,17,30,32.20
2018,02,28,17,31,38.60
2018,02,28,17,32,25.70
2018,02,28,17,33,33.80
2018,02,28,17,34,40.20
2018,02,28,17,35,33.80
2018,02,28,17,36,33.80
2018,02,28,17,37,46.70
2018,02,28,17,38,40.20
2018,02,28,17,39,37.00
2018,02,28,17,40,37.00
2018,02,28,17,41,33.80
2018,02,28,17,42,35.40
2018,02,28,17,43,33.80
2018,02,28,17,44,38.60
2018,02,28,17,45,32.20
2018,02,28,17,46,45.10
2018,02,28,17,47,35.40
2018,02,28,17,48,29.00
2018,02,28,17,49,30.60
2018,02,28,17,50,38.60
2018,02,28,17,51,40.20
2018,02,28,17,52,33.80
2018,02,28,17,53,41.80
2018,02,28,17,54,43.50
2018,02,28,17,55,46.70
2018,02,28,17,56,45.10
2018,02,28,17,57,41.80
2018,02,28,17,58,43.50
2018,02,28,17,59,43.50
2018,02,28,18,00,40.20
2018,02,28,18,01,48.30
2018,02,28,18,02,45.10
2018,02,28,18,03,24.20
2018,02,28,18,04,37.00
2018,02,28,18,05,48.30
2018,02,28,18,06,41.80
2018,02,28,18,07,38.60
2018,02,28,18,08,40.20
2018,02,28,18,09,35.40
2018,02,28,18,10,35.40
2018,02,28,18,11,45.10
2018,02,28,18,12,41.80
2018,02,28,18,13,37.00
2018,02,28,18,14,37.00
2018,02,28,18,15,33.80
2018,02,28,18,16,22.50
2018,02,28,18,17,38.60
2018,02,28,18,18,38.60
2018,02,28,18,19,49.90
2018,02,28,18,20,38.60
2018,02,28,18,21,25.70
2018,02,28,18,22,25.70
2018,02,28,18,23,45.10
2018,02,28,18,24,32.20
2018,02,28,18,25,29.00
2018,02,28,18,26,37.00
2018,02,28,18,27,43.50
2018,02,28,18,28,41.80
2018,02,28,18,29,40.20
2018,02,28,18,30,37.00
2018,02,28,18,31,35.40
2018,02,28,18,32,40.20
2018,02,28,18,33,48.30
2018,02,28,18,34,22.50
2018,02,28,18,35,32.20
2018,02,28,18,36,48.30
2018,02,28,18,37,41.80
2018,02,28,18,38,35.40
2018,02,28,18,39,30.60
2018,02,28,18,40,43.50
2018,02,28,18,41,45.10
2018,02,28,18,42,46.70
2018,02,28,18,43,33.80
2018,02,28,18,44,32.20
2018,02,28,18,45,40.20
2018,02,28,18,46,56.30
2018,02,28,18,47,40.20
2018,02,28,18,48,35.40
2018,02,28,18,49,43.50
2018,02,28,18,50,56.30
2018,02,28,18,51,49.90
2018,02,28,18,52,51.50
2018,02,28,18,53,40.20
2018,02,28,18,54,51.50
2018,02,28,18,55,53.10
2018,02,28,18,56,37.00
2018,02,28,18,57,51.50
2018,02,28,18,58,45.10
2018,02,28,18,59,45.10
2018,02,28,19,00,41.80
2018,02,28,19,01,53.10
2018,02,28,19,02,45.10
2018,02,28,19,03,49.90
2018,02,28,19,04,29.00
2018,02,28,19,05,43.50
2018,02,28,19,06,38.60
2018,02,28,19,07,41.80
2018,02,28,19,08,37.00
2018,02,28,19,09,54.70
2018,02,28,19,10,48.30
2018,02,28,19,11,32.20
2018,02,28,19,12,41.80
2018,02,28,19,13,27.40
2018,02,28,19,14,43.50
2018,02,28,19,15,20.90
2018,02,28,19,16,32.20
2018,02,28,19,17,40.20
2018,02,28,19,18,40.20
2018,02,28,19,19,53.10
2018,02,28,19,20,48.30
2018,02,28,19,21,45.10
2018,02,28,19,22,51.50
2018,02,28,19,23,37.00
2018,02,28,19,24,33.80
2018,02,28,19,25,35.40
2018,02,28,19,26,35.40
2018,02,28,19,27,41.80
2018,02,28,19,28,38.60
2018,02,28,19,29,40.20
2018,02,28,19,30,48.30
2018,02,28,19,31,45.10
2018,02,28,19,32,30.60